"TOA5","AWS1","CR1000","7964","CR1000.Std.14","CPU:AWS1_114.CR1","64363","TBL110"
"TIMESTAMP","RECORD","Wind_spd_WVc(1)","Wind_spd_WVc(2)","Air_Temp_Avg","Humidity_Avg","SW_upper_Wm2_Avg","Rain_Tot","Press_Avg","Issui_Tot","Depth_cm","SR50A_Raw","Quality","Ground_Temp_Avg(1)","Ground_Temp_Avg(2)","SW_lower_Wm2_Avg","Albedo_Avg","SWC_per(1)","SWC_per(2)","Period(1)","Period(2)"
"TS","RN","","","","","","","","","","","","","","","","","","",""
"","","WVc","WVc","Avg","Avg","Avg","Tot","Avg","Tot","Smp","Smp","Smp","Avg","Avg","Avg","Avg","Smp","Smp","Smp","Smp"
"2018-05-01 00:00:00",338605,0.516,182.2,9.64,51.52,0,0,868.4246,0,-3.727,3.164,180,10.37,9.68,0.03411753,0,50.28,57.8,33.37,35.17
"2018-05-01 00:10:00",338606,0.51,174.4,9.18,53.37,0,0,868.4231,0,-2.593,3.156,188,10.34,9.68,0,0,50.22,57.8,33.35,35.17
"2018-05-01 00:20:00",338607,0.579,165.9,9.34,52.11,0,0,868.4053,0,-2.492,3.148,175,10.33,9.68,0.1288884,0,50.28,57.8,33.37,35.17
"2018-05-01 00:30:00",338608,0.872,179.9,10.25,48.03,0,0,868.3239,0,-3.718,3.161,188,10.24,9.68,0.670978,0,50.28,57.8,33.37,35.17
"2018-05-01 00:40:00",338609,0.912,170.7,9.89,49.46,0,0,868.2177,0,-3.104,3.154,185,10.26,9.68,0.1440518,0,50.22,57.8,33.35,35.17
"2018-05-01 00:50:00",338610,0.781,163.3,10.13,48.21,0,0,868.1727,0,-2.665,3.148,193,10.24,9.68,0.06444422,0,50.22,57.8,33.35,35.17
"2018-05-01 01:00:00",338611,0.931,167.2,10.48,46.95,0,0,867.9836,0,-3.297,3.153,177,10.14,9.68,0.2956852,0,50.22,57.8,33.35,35.17
"2018-05-01 01:10:00",338612,0.887,179.7,10.42,47.2,0,0,867.9337,0,-3.261,3.15,196,10.16,9.68,0.1705876,0,50.22,57.8,33.35,35.17
"2018-05-01 01:20:00",338613,0.843,199.9,10.91,45.07,0,0,868.0668,0,-3.159,3.149,177,10.13,9.68,0.1592151,0,50.28,57.74,33.37,35.16
"2018-05-01 01:30:00",338614,0.522,208.2,11.08,44.33,0,0,868.1904,0,-3.115,3.15,188,10.13,9.68,0.05307171,0,50.22,57.74,33.35,35.16
"2018-05-01 01:40:00",338615,0.76,197.3,10.86,45.09,0,0,868.3626,0,-3.729,3.157,188,10.1,9.68,0,0,50.22,57.74,33.35,35.16
"2018-05-01 01:50:00",338616,0.597,189.2,10.23,47.46,0,0,868.3397,0,-2.904,3.153,179,10.04,9.64,0,0,50.22,57.74,33.35,35.16
"2018-05-01 02:00:00",338617,0.422,189,9.84,49.47,0,0,868.4006,0,-3.03,3.154,193,10.03,9.61,0,0,50.22,57.74,33.35,35.16
"2018-05-01 02:10:00",338618,0.581,181.6,10.08,48.58,0,0,868.2947,0,-3.354,3.155,193,9.99,9.56,0.1364701,0,50.28,57.74,33.37,35.16
"2018-05-01 02:20:00",338619,1.026,178.1,10.39,47.61,0,0,868.2849,0,-3.072,3.152,188,9.97,9.55,0.2198685,0,50.28,57.74,33.37,35.16
"2018-05-01 02:30:00",338620,0.69,183.3,10.1,49.54,0,0,868.4492,0,-3.424,3.154,171,9.94,9.55,0.1781693,0,50.28,57.74,33.37,35.16
"2018-05-01 02:40:00",338621,0.458,161.7,10.02,50.38,0,0,868.455,0,-2.802,3.152,187,9.93,9.57,0.01137251,0,50.22,57.74,33.35,35.16
"2018-05-01 02:50:00",338622,0.391,186.5,10.05,50.85,0,0,868.4767,0,-3.49,3.159,170,9.89,9.59,0.003790837,0,50.28,57.74,33.37,35.16
"2018-05-01 03:00:00",338623,0.23,185.7,10,51.76,0,0,868.5426,0,-3.286,3.157,179,9.81,9.6,0.2501952,0,50.28,57.74,33.37,35.16
"2018-05-01 03:10:00",338624,0.41,187.2,9.71,53.26,0,0,868.614,0,-3.289,3.158,194,9.83,9.6,0.02274502,0,50.22,57.74,33.35,35.16
"2018-05-01 03:20:00",338625,0.41,171.8,9.45,55.05,0,0,868.5178,0,-3.397,3.161,193,9.82,9.6,0,0,50.22,57.74,33.35,35.16
"2018-05-01 03:30:00",338626,0.624,187.5,9.3,56.82,0,0,868.6051,0,-3.9,3.164,190,9.8,9.6,0.1023526,0,50.28,57.74,33.37,35.16
"2018-05-01 03:40:00",338627,0.359,160.7,9.29,58.31,0,0,868.7289,0,-3.503,3.163,190,9.75,9.6,0,0,50.22,57.68,33.35,35.14
"2018-05-01 03:50:00",338628,0.53,207.4,9.43,59.38,0,0,868.8568,0,-3.728,3.164,180,9.73,9.59,0.163006,0,50.28,57.74,33.37,35.16
"2018-05-01 04:00:00",338629,0.56,181.1,9.44,60.21,0,0,868.8557,0,-3.391,3.159,177,9.67,9.53,0.09856175,0,50.28,57.74,33.37,35.16
"2018-05-01 04:10:00",338630,0.572,226.8,9.75,60.54,0,0,868.8076,0,-4.254,3.167,189,9.66,9.48,0.253986,0,50.22,57.68,33.35,35.14
"2018-05-01 04:20:00",338631,0.31,248.6,9.49,62.75,0,0,868.7457,0,-3.746,3.162,203,9.68,9.47,0,0,50.22,57.68,33.35,35.14
"2018-05-01 04:30:00",338632,0.405,213.5,9.77,62.66,0,0,868.7493,0,-4.005,3.166,172,9.58,9.47,0.1175159,0,50.22,57.68,33.35,35.14
"2018-05-01 04:40:00",338633,0.441,176.6,9.09,65.65,0,0,868.7501,0,-4.007,3.167,177,9.57,9.48,0.003790837,0,50.28,57.68,33.37,35.14
"2018-05-01 04:50:00",338634,0.38,183,8.97,67.45,0,0,868.751,0,-3.401,3.162,181,9.59,9.51,0,0,50.28,57.68,33.37,35.14
"2018-05-01 05:00:00",338635,0.712,176.8,9.15,67.75,0.2791455,0,868.7423,0,-3.423,3.161,194,9.51,9.51,0.4928087,0.482,50.22,57.68,33.35,35.14
"2018-05-01 05:10:00",338636,0.42,184.8,9.1,67.94,3.797951,0,868.7719,0,-3.431,3.164,192,9.47,9.51,0.8832648,0.267,50.28,57.68,33.37,35.14
"2018-05-01 05:20:00",338637,0.424,197.3,8.84,68.88,9.078126,0,868.9216,0,-3.576,3.163,171,9.48,9.51,1.686922,0.182,50.22,57.68,33.35,35.14
"2018-05-01 05:30:00",338638,0.424,108.6,9,68.13,17.70018,0,869.0112,0,-3.604,3.164,171,9.5,9.51,3.074368,0.174,50.22,57.68,33.35,35.14
"2018-05-01 05:40:00",338639,0.372,169.6,8.85,68.84,27.74942,0,869.0468,0,-3.354,3.163,171,9.46,9.53,4.207828,0.152,50.28,57.68,33.37,35.14
"2018-05-01 05:50:00",338640,0.579,212.3,9.27,67.14,39.55217,0,869.2593,0,-2.473,3.149,192,9.44,9.51,6.270043,0.158,50.22,57.68,33.35,35.14
"2018-05-01 06:00:00",338641,0.328,169.9,9.69,65.32,59.20244,0,869.2672,0,-3.29,3.158,170,9.39,9.48,9.401275,0.161,50.22,57.68,33.35,35.14
"2018-05-01 06:10:00",338642,0.371,158.5,9.46,67,88.05271,0,869.2839,0,-2.988,3.156,171,9.4,9.47,14.46583,0.168,50.28,57.68,33.37,35.14
"2018-05-01 06:20:00",338643,0.595,171.1,10,65.59,132.3425,0,869.2304,0,-2.971,3.151,176,9.41,9.45,19.07928,0.15,50.28,57.68,33.37,35.14
"2018-05-01 06:30:00",338644,0.689,164.3,10.62,63.32,104.5459,0,868.9867,0,-3.388,3.151,185,9.36,9.44,20.98986,0.207,50.28,57.68,33.37,35.14
"2018-05-01 06:40:00",338645,0.755,164.7,11.24,60.37,143.3432,0,868.9474,0,-3.886,3.153,175,9.34,9.44,21.69496,0.161,50.33,57.68,33.38,35.14
"2018-05-01 06:50:00",338646,0.71,178.7,11.6,58.17,126.7242,0,868.971,0,-3.595,3.148,189,9.32,9.4,23.30227,0.193,50.28,57.68,33.37,35.14
"2018-05-01 07:00:00",338647,0.591,163.3,12.05,56.77,107.7266,0,868.9677,0,-3.533,3.145,184,9.3,9.39,26.05821,0.248,50.28,57.68,33.37,35.14
"2018-05-01 07:10:00",338648,0.562,170,12.23,56.65,123.6487,0,869.1112,0,-3.526,3.144,184,9.27,9.38,26.70243,0.218,50.28,57.68,33.37,35.14
"2018-05-01 07:20:00",338649,0.559,273,12.34,54.27,115.8208,0,869.176,0,-3.613,3.146,190,9.21,9.36,26.92804,0.233,50.28,57.68,33.37,35.14
"2018-05-01 07:30:00",338650,0.305,295.2,12.47,53.92,123.2702,0,868.9737,0,-3.48,3.142,198,9.18,9.33,27.26188,0.222,50.28,57.68,33.37,35.14
"2018-05-01 07:40:00",338651,0.617,324.9,12.71,53.07,142.0834,0,869.0432,0,-2.46,3.134,198,9.15,9.3,29.06728,0.21,50.28,57.68,33.37,35.14
"2018-05-01 07:50:00",338652,0.627,32.01,12.68,53.24,385.1227,0,869.0496,0,-2.388,3.13,196,9.16,9.29,35.98231,0.112,50.28,57.68,33.37,35.14
"2018-05-01 08:00:00",338653,0.447,319.3,13.14,53.41,532.6155,0,869.1758,0,-3.054,3.137,197,9.14,9.29,54.98277,0.103,50.28,57.68,33.37,35.14
"2018-05-01 08:10:00",338654,0.511,5.443,12.82,55.77,570.6902,0,869.1696,0,-2.649,3.134,196,9.13,9.29,73.44524,0.129,50.22,57.68,33.35,35.14
"2018-05-01 08:20:00",338655,0.399,276.8,13.26,54.37,604.4232,0,869.1758,0,-2.785,3.132,192,9.2,9.29,83.64283,0.138,50.28,57.68,33.37,35.14
"2018-05-01 08:30:00",338656,0.345,309,13.58,53.68,637.1978,0,869.1738,0,-2.696,3.129,187,9.17,9.29,88.37975,0.139,50.33,57.68,33.38,35.14
"2018-05-01 08:40:00",338657,0.322,296.1,13.94,53.29,609.7054,0,869.0931,0,-3.179,3.133,182,9.16,9.29,87.94017,0.147,50.28,57.68,33.37,35.14
"2018-05-01 08:50:00",338658,0.451,278.7,14,52.89,491.4388,0,868.8862,0,-3.289,3.132,202,9.15,9.21,86.83189,0.203,50.28,57.68,33.37,35.14
"2018-05-01 09:00:00",338659,0.406,287.5,14.25,52.57,733.4913,0,868.8491,0,-3.393,3.133,196,9.15,9.15,89.30883,0.122,50.28,57.62,33.37,35.13
"2018-05-01 09:10:00",338660,0.438,314.2,14.32,52.76,759.762,0,868.8344,0,-3.952,3.137,187,9.13,9.18,95.67293,0.126,50.28,57.62,33.37,35.13
"2018-05-01 09:20:00",338661,0.531,350.8,14.5,52.82,759.4442,0,868.8074,0,-2.77,3.125,190,9.13,9.13,95.9506,0.126,50.22,57.68,33.35,35.14
"2018-05-01 09:30:00",338662,0.398,105.2,15.32,50.61,788.449,0,868.7537,0,-3.737,3.133,181,9.15,9.08,100.5174,0.127,50.28,57.68,33.37,35.14
"2018-05-01 09:40:00",338663,0.677,4.611,14.78,51.16,836.8115,0,868.6089,0,-2.606,3.122,193,9.13,9.07,107.2098,0.128,50.22,57.62,33.35,35.13
"2018-05-01 09:50:00",338664,0.97,23.85,14.77,51.39,875.723,0,868.5038,0,-3.983,3.134,185,9.11,9.04,115.1134,0.131,50.28,57.62,33.37,35.13
"2018-05-01 10:00:00",338665,0.618,331.8,15.58,50.18,855.5173,0,868.5362,0,-4.221,3.133,185,9.14,9.03,116.4175,0.136,50.28,57.86,33.37,35.18
"2018-05-01 10:10:00",338666,0.614,353.9,15.87,50.24,890.1082,0,868.4814,0,-2.762,3.116,218,9.16,9.03,124.505,0.14,50.28,57.68,33.37,35.14
"2018-05-01 10:20:00",338667,0.373,348.9,16.55,49.12,895.1765,0,868.6091,0,-4.033,3.126,201,9.16,9.01,127.9045,0.143,50.22,57.62,33.35,35.13
"2018-05-01 10:30:00",338668,0.557,308,16.1,50,885.4535,0,868.6218,0,-4.004,3.129,197,9.17,9,129.2991,0.146,50.28,57.62,33.37,35.13
"2018-05-01 10:40:00",338669,0.437,100.7,17.22,48.52,861.0648,0,868.6329,0,-5.109,3.132,196,9.18,8.97,129.8522,0.151,50.28,57.62,33.37,35.13
"2018-05-01 10:50:00",338670,0.432,314.3,16.99,48.06,937.6047,0,868.6347,0,-3.212,3.119,223,9.24,8.94,143.1242,0.153,50.22,57.62,33.35,35.13
"2018-05-01 11:00:00",338671,0.574,173.9,17.44,47.54,943.3995,0,868.4273,0,-3.736,3.118,189,9.29,8.94,146.9026,0.156,50.28,57.62,33.37,35.13
"2018-05-01 11:10:00",338672,0.708,324.8,17.56,46.69,917.4506,0,868.3861,0,-3.339,3.116,194,9.36,8.96,144.4334,0.157,50.28,57.62,33.37,35.13
"2018-05-01 11:20:00",338673,0.697,337.3,17.24,46.97,943.4268,0,868.2517,0,-3.903,3.121,213,9.47,8.99,151.2516,0.16,50.22,57.62,33.35,35.13
"2018-05-01 11:30:00",338674,0.702,355.2,17.66,45.66,919.7211,0,868.1025,0,-2.953,3.109,212,9.5,8.98,148.027,0.161,50.22,57.62,33.35,35.13
"2018-05-01 11:40:00",338675,0.695,338,17.9,44.11,870.7385,0,867.8929,0,-3.709,3.114,214,9.6,8.96,141.2021,0.162,50.22,57.62,33.35,35.13
"2018-05-01 11:50:00",338676,0.578,347.2,18.81,42.18,951.2504,0,867.8605,0,-3.528,3.109,193,9.68,8.96,155.6326,0.164,50.22,57.62,33.35,35.13
"2018-05-01 12:00:00",338677,0.432,291.6,19.04,41.06,892.8936,0,867.6498,0,-3.751,3.11,192,9.78,8.98,144.9689,0.162,50.22,57.62,33.35,35.13
"2018-05-01 12:10:00",338678,0.658,288.1,18.78,38.23,849.4011,0,867.414,0,-2.875,3.105,197,9.82,8.97,136.882,0.161,50.22,57.62,33.35,35.13
"2018-05-01 12:20:00",338679,0.531,306.4,18.72,36.7,888.4681,0,867.4022,0,-4.776,3.122,201,9.91,8.94,146.2649,0.165,50.22,57.62,33.35,35.13
"2018-05-01 12:30:00",338680,0.614,315.5,18.98,37.61,844.5944,0,867.3709,0,-3.401,3.105,203,10.03,8.92,137.8294,0.163,50.17,57.62,33.34,35.13
"2018-05-01 12:40:00",338681,0.504,317.3,19.07,37.34,822.8009,0,867.1607,0,-2.732,3.099,204,10.11,8.94,134.5477,0.163,50.17,57.62,33.34,35.13
"2018-05-01 12:50:00",338682,0.461,73.84,19.94,36.42,834.6271,0,867.1179,0,-3.472,3.102,188,10.21,8.95,136.4993,0.163,50.17,57.62,33.34,35.13
"2018-05-01 13:00:00",338683,0.44,273.1,19.94,34.79,944.2073,0,866.9871,0,-3.934,3.106,198,10.31,8.95,156.3792,0.166,50.17,57.62,33.34,35.13
"2018-05-01 13:10:00",338684,0.739,305.2,19.93,33.23,887.1003,0,866.8877,0,-2.437,3.095,198,10.41,8.92,144.2792,0.163,50.17,57.62,33.34,35.13
"2018-05-01 13:20:00",338685,0.603,322.8,19.57,32.68,922.3707,0,866.7924,0,-3.95,3.111,194,10.48,8.92,150.4978,0.163,50.17,57.62,33.34,35.13
"2018-05-01 13:30:00",338686,0.482,317.6,19.38,32.99,936.0127,0,866.643,0,-3.473,3.105,201,10.57,8.92,151.3315,0.162,50.17,57.62,33.34,35.13
"2018-05-01 13:40:00",338687,0.923,336.4,19.59,32.46,923.035,0,866.587,0,-4.07,3.111,201,10.67,8.92,144.787,0.157,50.17,57.62,33.34,35.13
"2018-05-01 13:50:00",338688,0.856,335.4,19.61,31.59,917.8548,0,866.4899,0,-3.672,3.109,196,10.78,8.93,137.7233,0.15,50.11,57.62,33.33,35.13
"2018-05-01 14:00:00",338689,0.666,342.7,19.56,31.52,766.1419,0,866.3939,0,-4.261,3.114,207,10.83,8.92,108.0474,0.141,50.11,57.62,33.33,35.13
"2018-05-01 14:10:00",338690,0.417,278.9,19.54,31.71,616.0247,0,866.3931,0,-2.875,3.099,208,10.96,8.93,82.4642,0.134,50.11,57.62,33.33,35.13
"2018-05-01 14:20:00",338691,0.515,289.3,19.92,31.61,754.4376,0,866.3934,0,-3.727,3.104,190,11.03,8.91,97.35709,0.129,50.06,57.62,33.31,35.13
"2018-05-01 14:30:00",338692,0.493,313.6,20.53,30.59,696.0453,0,866.3066,0,-3.44,3.101,189,11.12,8.9,82.52862,0.119,50.06,57.56,33.31,35.12
"2018-05-01 14:40:00",338693,0.578,283.7,19.9,30.39,616.8894,0,866.147,0,-4.077,3.112,186,11.19,8.9,67.10898,0.108,50.06,57.62,33.31,35.13
"2018-05-01 14:50:00",338694,0.577,276.9,19.91,30.3,719.4698,0,866.1471,0,-4.174,3.109,182,11.29,8.9,67.47657,0.094,50.06,57.62,33.31,35.13
"2018-05-01 15:00:00",338695,0.323,243.9,20.46,29.96,660.0164,0,866.1395,0,-4.157,3.107,193,11.36,8.89,49.09729,0.075,50.06,57.56,33.31,35.12
"2018-05-01 15:10:00",338696,0.504,331.1,20.09,28.91,379.7401,0,866.0891,0,-3.504,3.103,202,11.47,8.92,34.82967,0.093,50.01,57.56,33.3,35.12
"2018-05-01 15:20:00",338697,0.4,274.9,19.91,29.48,200.1929,0,865.9355,0,-3.273,3.101,199,11.51,8.95,24.11285,0.131,50.06,57.56,33.31,35.12
"2018-05-01 15:30:00",338698,0.397,144.8,19.93,28.67,96.32731,0,865.9484,0,-2.572,3.097,192,11.62,8.99,19.19781,0.199,50.01,57.56,33.3,35.12
"2018-05-01 15:40:00",338699,0.494,279.4,19.54,25.47,93.12414,0,865.9152,0,-2.915,3.101,194,11.66,8.99,15.55228,0.167,50.06,57.56,33.31,35.12
"2018-05-01 15:50:00",338700,0.611,270.7,19.53,24.92,89.55151,0,865.9111,0,-2.668,3.097,197,11.76,8.99,13.61203,0.152,49.95,57.56,33.28,35.12
"2018-05-01 16:00:00",338701,0.305,165.9,19.72,25.4,84.17488,0,866.1028,0,-2.74,3.097,200,11.87,9.02,12.31601,0.146,50.01,57.56,33.3,35.12
"2018-05-01 16:10:00",338702,0.328,164.2,19.88,24.77,82.33944,0,866.1428,0,-3.337,3.103,198,11.88,9.1,11.44062,0.139,49.95,57.56,33.28,35.12
"2018-05-01 16:20:00",338703,0.274,245,19.78,26.81,82.02109,0,866.1428,0,-3.68,3.107,182,11.93,9.09,10.48566,0.128,49.95,57.56,33.28,35.12
"2018-05-01 16:30:00",338704,0.22,212.6,19.67,29.46,88.34885,0,866.1513,0,-2.62,3.097,197,11.97,9.11,11.04651,0.125,49.95,57.51,33.28,35.1
"2018-05-01 16:40:00",338705,0.245,99.7,19.65,35.24,89.09953,0,866.3387,0,-2.47,3.096,194,12.03,9.16,11.05409,0.124,49.95,57.56,33.28,35.12
"2018-05-01 16:50:00",338706,0.287,103.3,19.48,39.37,78.3502,0,866.2861,0,-3.416,3.107,186,12.06,9.19,8.928159,0.114,49.9,57.51,33.27,35.1
"2018-05-01 17:00:00",338707,0.085,231.3,18.87,42.41,74.11336,0,866.1892,0,-3.384,3.109,190,12.05,9.2,8.022458,0.108,49.9,57.51,33.27,35.1
"2018-05-01 17:10:00",338708,0.231,150.3,18.6,43.6,72.69453,0,866.1998,0,-3.344,3.11,190,12.11,9.2,8.321832,0.115,49.9,57.51,33.27,35.1
"2018-05-01 17:20:00",338709,0.162,71.5,18.38,44.16,68.54807,0,866.3956,0,-4.075,3.118,187,12.11,9.17,8.427939,0.123,49.9,57.51,33.27,35.1
"2018-05-01 17:30:00",338710,0.164,66.82,18.06,46.14,63.0103,0,866.4019,0,-3.834,3.118,190,12.11,9.24,8.238462,0.131,49.9,57.51,33.27,35.1
"2018-05-01 17:40:00",338711,0.077,1.507,17.71,49.09,58.25073,0,866.425,0,-3.642,3.118,196,12.11,9.31,7.976984,0.137,49.9,57.51,33.27,35.1
"2018-05-01 17:50:00",338712,0.139,265.3,17.44,50.52,64.52346,0,866.6462,0,-3.521,3.118,197,12.11,9.29,9.561011,0.148,49.84,57.51,33.26,35.1
"2018-05-01 18:00:00",338713,0.168,279.7,17.1,50.15,42.69467,0,866.8295,0,-3.098,3.116,196,12.12,9.29,5.604731,0.127,49.84,57.51,33.26,35.1
"2018-05-01 18:10:00",338714,0.263,50.06,16.6,51.3,20.7008,0,866.9053,0,-3.222,3.12,189,12.14,9.3,1.985719,0.092,49.9,57.51,33.27,35.1
"2018-05-01 18:20:00",338715,0.141,274.8,15.93,54.73,9.542727,0,866.9622,0,-5.177,3.143,194,12.15,9.41,0.2993737,0.03,49.84,57.45,33.26,35.09
"2018-05-01 18:30:00",338716,0.155,8.92,15.55,54.89,3.674815,0,867.2529,0,-4.898,3.141,188,12.19,9.42,0.1098967,0.019,49.9,57.45,33.27,35.09
"2018-05-01 18:40:00",338717,0.099,27.5,15.34,54.99,0,0,867.3624,0,-3.629,3.131,199,12.18,9.39,0,0,49.84,57.45,33.26,35.09
"2018-05-01 18:50:00",338718,0.232,23.29,14.9,56.58,0,0,867.5077,0,-2.812,3.124,205,12.11,9.38,0,0,49.84,57.51,33.26,35.1
"2018-05-01 19:00:00",338719,0.003,318.5,14.68,56.77,0,0,867.7036,0,-2.39,3.122,196,12.07,9.5,0,0,49.84,57.45,33.26,35.09
"2018-05-01 19:10:00",338720,0.101,306.7,14.42,57.15,0,0,867.8994,0,-2.269,3.122,195,12.09,9.55,0,0,49.84,57.45,33.26,35.09
"2018-05-01 19:20:00",338721,0.028,108.9,14.14,58.18,0,0,867.9753,0,-2.051,3.122,195,12.12,9.54,0,0,49.84,57.45,33.26,35.09
"2018-05-01 19:30:00",338722,0.058,103.9,13.75,59.86,0,0,868.1606,0,-2.063,3.124,192,12.14,9.55,0,0,49.84,57.45,33.26,35.09
"2018-05-01 19:40:00",338723,0.292,133.2,13.7,59.38,0,0,868.3059,0,-2.461,3.126,195,12.01,9.58,0.2084248,0,49.84,57.45,33.26,35.09
"2018-05-01 19:50:00",338724,0.151,105.3,13.85,58.2,0,0,868.4197,0,-2.696,3.129,196,12.02,9.63,0.1629503,0,49.84,57.39,33.26,35.07
"2018-05-01 20:00:00",338725,0.234,118.8,13.72,57.21,0,0,868.4218,0,-2.183,3.124,194,12.06,9.64,0.1212653,0,49.79,57.45,33.24,35.09
"2018-05-01 20:10:00",338726,0.123,132.3,13.71,56.96,0,0,868.6451,0,-2.166,3.125,186,12.05,9.64,0.1591607,0,49.84,57.45,33.26,35.09
"2018-05-01 20:20:00",338727,0.274,139.8,13.54,56.89,0,0,868.923,0,-2.268,3.126,181,11.97,9.65,0.1288462,0,49.79,57.45,33.24,35.09
"2018-05-01 20:30:00",338728,0.392,147.3,13.35,58.84,0,0,869.1063,0,-2.34,3.13,181,11.95,9.67,0.1364251,0,49.79,57.45,33.24,35.09
"2018-05-01 20:40:00",338729,0.442,132.1,13.11,58.42,0,0,869.1631,0,-2.352,3.128,189,11.97,9.66,0.01515836,0,49.84,57.45,33.26,35.09
"2018-05-01 20:50:00",338730,0.373,139.1,13.4,57.1,0,0,868.9462,0,-2.172,3.126,194,11.84,9.72,0.185689,0,49.79,57.45,33.24,35.09
"2018-05-01 21:00:00",338731,0.287,159.6,13.47,57.69,0,0,868.8662,0,-2.608,3.13,193,11.89,9.73,0.09852993,0,49.79,57.45,33.24,35.09
"2018-05-01 21:10:00",338732,0.32,163.3,13.32,58.62,0,0,868.9778,0,-2.578,3.129,180,11.89,9.75,0.07958238,0,49.79,57.45,33.24,35.09
"2018-05-01 21:20:00",338733,0.439,120.6,13.4,58.59,0,0,869.159,0,-2.271,3.126,177,11.78,9.78,0.1629545,0,49.79,57.39,33.24,35.07
"2018-05-01 21:30:00",338734,0.068,116.3,13.39,58.79,0,0,869.1969,0,-2.74,3.132,194,11.81,9.8,0.04926543,0,49.79,57.39,33.24,35.07
"2018-05-01 21:40:00",338735,0.261,36.5,13.32,58.83,0,0,869.3948,0,-2.584,3.13,193,11.74,9.82,0.1553754,0,49.73,57.39,33.23,35.07
"2018-05-01 21:50:00",338736,0.37,123.3,12.97,61.12,0,0,869.1843,0,-2.498,3.132,194,11.72,9.82,0.03410685,0,49.73,57.39,33.23,35.07
"2018-05-01 22:00:00",338737,0.159,153.9,12.96,60.95,0,0,869.0052,0,-2.907,3.136,175,11.73,9.82,0.06442431,0,49.79,57.39,33.24,35.07
"2018-05-01 22:10:00",338738,0.023,75.98,12.83,61.54,0,0,868.9778,0,-2.509,3.133,185,11.66,9.83,0,0,49.79,57.39,33.24,35.07
"2018-05-01 22:20:00",338739,0.197,144.8,12.93,60.3,0,0,868.9651,0,-2.348,3.13,194,11.62,9.88,0.1478031,0,49.73,57.39,33.23,35.07
"2018-05-01 22:30:00",338740,0.314,11.34,12.91,60.34,0,0,869.1232,0,-2.553,3.132,194,11.65,9.9,0.125064,0,49.79,57.39,33.24,35.07
"2018-05-01 22:40:00",338741,0.189,123,12.81,61.21,0,0,869.1737,0,-2.873,3.137,188,11.6,9.88,0.07579619,0,49.79,57.39,33.24,35.07
"2018-05-01 22:50:00",338742,0.207,144.5,11.84,66.41,0,0,868.9357,0,-2.853,3.142,193,11.57,9.9,0,0,49.79,57.39,33.24,35.07
"2018-05-01 23:00:00",338743,0.341,158.4,11.79,66.48,0,0,868.6893,0,-2.892,3.14,193,11.57,9.9,0.07201051,0,49.79,57.39,33.24,35.07
"2018-05-01 23:10:00",338744,0.351,187.9,12.34,64.02,0,0,868.6703,0,-2.936,3.138,194,11.53,9.95,0.3752202,0,49.79,57.33,33.24,35.06
"2018-05-01 23:20:00",338745,0.09,242.2,12.33,63.79,0,0,868.6703,0,-3.205,3.142,181,11.52,9.96,0.05306159,0,49.79,57.33,33.24,35.06
"2018-05-01 23:30:00",338746,0.107,190.2,11.87,66.46,0,0,868.6703,0,-3.296,3.15,175,11.5,9.97,0.003790362,0,49.79,57.33,33.24,35.06
"2018-05-01 23:40:00",338747,0.185,181.1,10.69,71.68,0,0,868.6746,0,-3.256,3.152,172,11.5,9.98,0,0,49.79,57.33,33.24,35.06
"2018-05-01 23:50:00",338748,0.245,182.2,10.35,73.03,0,0,868.7482,0,-3.169,3.154,193,11.46,10,0,0,49.73,57.33,33.23,35.06
